Hourly Data Report for November 28, 2020

VICTORIA UNIVERSITY CS
BRITISH COLUMBIA
Current Station Operator: ECCC - MSC

48°27'25.200" N
123°18'16.600" W
60.10 m
1018598
71783
WYJ

Download Data

Hourly Data (November 2020)
Hourly Data Report for November 28, 2020
TIME
LST
Temp Definition
°C
Dew Point Definition
°C
Rel Hum Definition
%
Precip. Amount Definition
mm

Wind Dir Definition
10's deg

Wind Spd Definition
km/h
Visibility Definition
km
Stn Press Definition
kPa
Hmdx Definition


Wind Chill Definition


Weather Definition


00:00 7.7 7.0 95 0.0 23 13   101.39     LegendNANA
01:00 7.5 6.9 96 0.0 24 14   101.42     LegendNANA
02:00 7.4 6.7 96 0.0 24 9   101.47     LegendNANA
03:00 7.4 6.4 93 0.0 24 13   101.53     LegendNANA
04:00 7.0 6.4 96 0.0 24 13   101.55     LegendNANA
05:00 6.5 5.4 92 0.2 25 10   101.60     LegendNANA
06:00 6.0 5.3 95 0.0 26 8   101.67     LegendNANA
07:00 4.8 3.3 90 0.0 25 5   101.82     LegendNANA
08:00 4.2 2.7 90 0.0 27 6   101.90     LegendNANA
09:00 5.5 3.0 84 0.0 28 5   101.98     LegendNANA
10:00 9.1 4.0 70 0.5 28 3   102.07     LegendNANA
11:00 9.8 4.1 68 0.0 7 4   102.10     LegendNANA
12:00 9.5 3.6 67 0.0 36 4   102.11     LegendNANA
13:00 9.8 2.9 62 0.0 9 5   102.13     LegendNANA
14:00 8.8 2.7 66 0.0 1 6   102.12     LegendNANA
15:00 8.3 3.5 72 0.0 3 3   102.17     LegendNANA
16:00 6.5 3.8 82 0.0 1 2   102.18     LegendNANA
17:00 3.8 3.4 97 0.0 29 3   102.21     LegendNANA
18:00 3.1 2.9 99 0.0 35 4   102.17     LegendNANA
19:00 5.7 5.3 97 0.0 1 6   102.12     LegendNANA
20:00 5.4 4.5 93 0.0 1 4   102.11     LegendNANA
21:00 5.8 4.8 93 0.0 1 6   102.06     LegendNANA
22:00 4.9 4.8 99 0.0 33 5   102.09     LegendNANA
23:00 4.7 4.4 98 0.0 34 6   102.05     LegendNANA

Notes on Data Quality.

Legend

  • E = Estimated
  • M = Missing
  • NA = Not Available*
  • [empty] = Indicates an unobserved value
Date modified: